Location: Jetmore Oil Field
(38.1181°N, 99.9337°W)
Time: 08:57:20
(UTC+00:00)

STARLINK-70 - Pass Details

Date: 17 February 2020
Orbit: 529 x 530 km, 53.0° (Epoch: 04 April)

Event Time Altitude Azimuth Distance (km) Brightness Sun altitude
Rises 01:50:43 0° 226° (SW) 2,653 7.8 -18.6°
Reaches altitude 10° 01:52:55 10° 226° (SW) 1,768 6.8 -19.1°
Maximum altitude 01:56:56 87° 138° (SE) 535 3.4 -19.9°
Enters shadow 01:57:48 54° 52° (NE) 648 3.6 -20.0°
